Regional Weather Roundup
Issued by NWS

Home | Current Version | Previous Version | Graphics & Text | Print | Product List | Glossary On
Versions: 1 2 3 4 5 6 7 8 9 10 11 12 13 14 15 16 17 18 19 20 21 22 23 24 25 26 27 28 29 30 31 32 33 34 35 36 37 38 39 40 41 42 43 44 45 46 47 48 49 50
000
ASUS45 KBOU 242107
RWRCO

WEATHER ROUNDUP FOR COLORADO
NATIONAL WEATHER SERVICE DENVER/BOULDER CO
200 PM MST SAT JAN 24 2015

NOTE: "FAIR" INDICATES FEW OR NO CLOUDS BELOW 12000 FEET WITH NO
SIGNIFICANT WEATHER AND/OR OBSTRUCTIONS TO VISIBILITY.

COZ001>005-013-030-031-242200-
...NORTHWEST COLORADO...

CITY           SKY/WX    TMP DP  RH WIND       PRES   REMARKS
CRAIG          CLOUDY    27  14  58 CALM      30.31F
HAYDEN         CLOUDY    23  10  58 CALM      30.30F
MEEKER         CLOUDY    28  13  53 CALM      30.31F
MOUNT WERNER   NOT AVBL
STEAMBOAT SPGS CLOUDY    19   9  65 CALM      30.30F
WALDEN         CLOUDY    30  16  55 S10       30.21S WCI  21
$$

COZ006>008-011-242200-
...WEST CENTRAL VALLEYS...

CITY           SKY/WX    TMP DP  RH WIND       PRES   REMARKS
GRAND JUNCTION PTSUNNY   38  10  31 CALM      30.32F
MONTROSE       PTSUNNY   37  11  34 CALM      30.31F
EAGLE          CLOUDY    27  12  54 CALM      30.35F
RIFLE          CLOUDY    35  12  38 CALM      30.34F
DELTA          PTSUNNY   42  11  28 E5        30.32F
NUCLA          PTSUNNY   39  12  33 CALM      30.32F
$$

COZ017>023-064>068-242200-
...SOUTHWEST COLORADO...

CITY           SKY/WX    TMP DP  RH WIND       PRES   REMARKS
DURANGO          N/A    N/A N/A N/A MISG      30.26F
CORTEZ         SUNNY     43  16  33 SW8       30.27F
PAGOSA SPRINGS CLOUDY    37  16  43 SW6       30.26F
TELLURIDE      PTSUNNY   40   8  26 CALM      30.30F
WOLF CREEK PAS NOT AVBL
$$

COZ009-010-012-014-032>034-037-058>063-242200-
...CENTRAL COLORADO...

CITY           SKY/WX    TMP DP  RH WIND       PRES   REMARKS
ASPEN          CLOUDY    30  12  47 NW5       30.28F WCI  25
BUENA VISTA    NOT AVBL
COPPER MTN     CLOUDY    27   9  46 W6        30.28S WCI  20
BERTHOUD PASS  LGT SNOW  12   7  79 NW40G56   30.18F WCI -12
COTTONWOOD PAS CLOUDY    41   1  19 W9G22     30.17S
GUNNISON       CLOUDY     9 -20  26 E3        30.36F
KREMMLING      CLOUDY    14   3  62 CALM      30.34F
LEADVILLE      CLOUDY    33   8  35 NW15      30.22F WCI  23
MONARCH PASS   CLOUDY    18   9  68 W49G55    30.29F HAZE    WCI  -6
SALIDA         CLOUDY    45   8  22 SW18G26   30.20F
SUNLIGHT       CLOUDY    30  12  47 SW5       30.32S WCI  25
WILKERSON PASS CLOUDY    30   7  37 N7        30.21F WCI  23
$$

COZ069>075-242200-
...SAN LUIS VALLEY/SANGRE DE CRISTO MOUNTAINS...

CITY           SKY/WX    TMP DP  RH WIND       PRES   REMARKS
ALAMOSA        CLOUDY    36   9  32 E5        30.22F
LA VETA PASS   NOT AVBL
SAGUACHE       CLOUDY    21  10  63 SE7       30.24F WCI  13
$$

COZ035-036-038>040-242200-
...NORTHERN COLORADO FRONT RANGE...

CITY           SKY/WX    TMP DP  RH WIND       PRES   REMARKS
DENVER INTL AP CLOUDY    53  18  25 NW8       29.98S
DMNS CITY PARK   N/A     53  15  22 W14G29    29.98S
AURORA         PTSUNNY   51  17  26 NW13      29.99S
FRONT RANGE AP NOT AVBL
ERIE MUNI ARPT CLOUDY    54  14  20 W18G26    29.98S
BOULDER MUN AP CLOUDY    52  18  25 W13G20    29.99S
CENTENNIAL     CLOUDY    51  17  26 N9        29.99S
BROOMFIELD     CLOUDY    54  16  22 W22G29    30.00S
FORT COLLINS   CLOUDY    45  27  49 S7        29.98F
LONGMONT       CLOUDY    56  16  20 W8G23     30.00R
$$

COZ041-046-047-076>085-087-088-242200-
...PIKES PEAK/PALMER DIVIDE AND SOUTHERN FOOTHILLS...

CITY           SKY/WX    TMP DP  RH WIND       PRES   REMARKS
COLO. SPRINGS  CLOUDY    50  18  28 CALM      29.99F
A. F. ACADEMY  CLOUDY    50   8  18 NW7G17    29.99F
ELLICOTT       CLOUDY   N/A N/A N/A MISG      29.97F
FALCON         CLOUDY    49  17  28 W8        30.02S
FORT CARSON    CLOUDY    49  22  34 NE1       29.96F
LIMON          CLOUDY    53  15  22 NW12      29.96F
MONUMENT HILL  CLOUDY    43  19  39 NW9       30.01F
TRINIDAD       MOSUNNY   52  28  39 CALM      29.99F
$$

COZ042>045-048>051-090-091-242200-
...NORTHEAST COLORADO...

CITY           SKY/WX    TMP DP  RH WIND       PRES   REMARKS
GREELEY ARPT   CLOUDY    45  27  49 CALM      29.95F
AKRON          CLOUDY    44  25  47 NW12      29.94S
BURLINGTON     CLOUDY    55  24  30 NW18      29.92F
WRAY           CLOUDY    50  22  33 W14       29.92S
STERLING       CLOUDY    50  32  50 NW15      29.91F
HOLYOKE        LGT RAIN  46  30  53 W12G18    29.91S
FORT MORGAN    CLOUDY    46  24  42 NW9       29.96F
$$

COZ086-089-092>099-242200-
...SOUTHEAST COLORADO...

CITY           SKY/WX    TMP DP  RH WIND       PRES   REMARKS
PUEBLO         CLOUDY    56  20  24 W18G26    29.93F
LA JUNTA       PTSUNNY   54  25  32 W12       29.94F
LAMAR          MOSUNNY   53  30  41 W15       29.93F
SPRINGFIELD      N/A     56  23  27 NW18      29.94F
$$



USA.gov is the U.S. government's official web portal to all federal, state and local government web resources and services.